TimeMDT,TemperatureF,Dew PointF,Humidity,Sea Level PressureIn,VisibilityMPH,Wind Direction,Wind SpeedMPH,Gust SpeedMPH,PrecipitationIn,Events,Conditions,WindDirDegrees,DateUTC
12:53 AM,30.9,30.0,96,30.17,6.0,East,10.4,-,N/A,,Overcast,80,2013-10-29 06:53:00
1:53 AM,30.9,30.0,96,30.16,5.0,ENE,8.1,-,N/A,,Overcast,70,2013-10-29 07:53:00
2:38 AM,30.2,30.2,100,30.07,2.5,ENE,10.4,-,N/A,,Overcast,60,2013-10-29 08:38:00
2:53 AM,30.9,30.0,96,30.14,3.0,ENE,10.4,-,N/A,,Overcast,70,2013-10-29 08:53:00
3:53 AM,30.9,30.0,96,30.13,2.5,ENE,9.2,-,N/A,,Overcast,70,2013-10-29 09:53:00
4:02 AM,30.2,30.2,100,30.06,3.0,ENE,10.4,-,N/A,,Overcast,70,2013-10-29 10:02:00
4:11 AM,30.2,30.2,100,30.06,2.5,ENE,10.4,-,N/A,,Overcast,70,2013-10-29 10:11:00
4:28 AM,30.2,30.2,100,30.06,3.0,ENE,10.4,-,N/A,,Overcast,70,2013-10-29 10:28:00
4:53 AM,30.0,28.9,96,30.13,4.0,ENE,10.4,-,N/A,,Overcast,70,2013-10-29 10:53:00
5:13 AM,30.2,28.4,93,30.06,6.0,East,9.2,-,N/A,,Overcast,80,2013-10-29 11:13:00
5:24 AM,30.2,28.4,93,30.05,5.0,ENE,8.1,-,N/A,,Overcast,70,2013-10-29 11:24:00
5:53 AM,30.0,28.9,96,30.14,6.0,NE,9.2,-,N/A,,Overcast,50,2013-10-29 11:53:00
6:32 AM,30.2,28.4,93,30.05,5.0,ENE,6.9,-,N/A,,Overcast,70,2013-10-29 12:32:00
6:53 AM,30.0,28.9,96,30.12,6.0,NE,8.1,-,N/A,,Overcast,50,2013-10-29 12:53:00
7:50 AM,30.2,28.4,93,30.04,2.5,NNE,8.1,-,N/A,,Overcast,30,2013-10-29 13:50:00
7:53 AM,30.0,28.9,96,30.12,2.5,NNE,8.1,-,N/A,,Overcast,30,2013-10-29 13:53:00
8:00 AM,30.2,28.4,93,30.05,3.0,NNE,8.1,-,N/A,,Overcast,30,2013-10-29 14:00:00
8:53 AM,30.0,28.9,96,30.15,2.5,NNE,6.9,-,N/A,,Overcast,20,2013-10-29 14:53:00
9:24 AM,30.2,28.4,93,30.07,3.0,NE,4.6,-,N/A,,Overcast,50,2013-10-29 15:24:00
9:32 AM,30.2,28.4,93,30.06,2.5,NE,4.6,-,N/A,,Overcast,50,2013-10-29 15:32:00
9:53 AM,30.0,28.9,96,30.13,3.0,ENE,5.8,-,N/A,,Overcast,70,2013-10-29 15:53:00
10:53 AM,30.9,30.0,96,30.11,3.0,ENE,5.8,-,N/A,,Overcast,70,2013-10-29 16:53:00
11:53 AM,30.9,28.9,92,30.09,6.0,ENE,5.8,-,N/A,,Overcast,70,2013-10-29 17:53:00
12:39 PM,30.2,30.2,100,29.99,10.0,ENE,6.9,-,0.01,,Overcast,70,2013-10-29 18:39:00
12:53 PM,32.0,30.0,92,30.06,9.0,NE,4.6,-,0.01,,Overcast,50,2013-10-29 18:53:00
1:53 PM,32.0,30.0,92,30.05,10.0,Calm,Calm,-,N/A,,Overcast,0,2013-10-29 19:53:00
2:53 PM,32.0,30.9,96,30.04,10.0,NE,4.6,-,0.02,,Overcast,40,2013-10-29 20:53:00
3:53 PM,33.1,30.9,92,30.05,10.0,Calm,Calm,-,0.01,,Overcast,0,2013-10-29 21:53:00
4:53 PM,33.1,30.9,92,30.04,10.0,NNE,4.6,-,N/A,,Overcast,30,2013-10-29 22:53:00
5:53 PM,32.0,30.9,96,30.03,10.0,NE,4.6,-,N/A,,Overcast,50,2013-10-29 23:53:00
6:53 PM,32.0,30.9,96,30.06,10.0,ESE,3.5,-,N/A,,Overcast,110,2013-10-30 00:53:00
7:53 PM,32.0,30.0,92,30.08,10.0,Calm,Calm,-,N/A,,Overcast,0,2013-10-30 01:53:00
8:53 PM,32.0,30.9,96,30.08,10.0,Calm,Calm,-,N/A,,Overcast,0,2013-10-30 02:53:00
9:53 PM,32.0,30.9,96,30.08,10.0,East,5.8,-,N/A,,Overcast,80,2013-10-30 03:53:00
10:53 PM,33.1,30.9,92,30.05,10.0,Calm,Calm,-,N/A,,Overcast,0,2013-10-30 04:53:00
11:53 PM,32.0,30.9,96,30.05,10.0,South,4.6,-,N/A,,Overcast,180,2013-10-30 05:53:00